Flag Weather past 2 weeks in Bruck an der Mur, Styria, Austria

Now
55 °F

Scattered clouds.


Feels Like: 55 °F
Forecast: 38 / 62 °F
Wind: 2 mph from North

Location: Zeltweg

Current Time: Oct 31, 2014 at 2:05:41 PM

Latest Report: Oct 31, 2014 at 12:50 PM


Visibility: 31 mi

Pressure: 30.30 "Hg

Humidity: 59%

Dew point: 41 °F

Location of Bruck an der MurLocation

Historic Weather in Bruck an der Mur — Graph

°F

Bruck an der Mur temperature yesterday

Maximum temperature yesterday: 57 °F (at 2:50 PM)
Minimum temperature yesterday: 36 °F (at 5:50 AM)
Average temperature yesterday: 46 °F

Past Weeks' High & Low Weather Summary

 TemperatureHumidityPressure
High70 °F (Oct 17, 2:20 PM)100% (Oct 17, 4:50 AM)30.42 "Hg (Oct 17, 4:50 AM)
Low25 °F (Oct 29, 3:50 AM)44% (Oct 30, 2:50 PM)29.68 "Hg (Oct 21, 10:50 PM)
Average47 °F78%30.09 "Hg
* Reported Oct 16 1:20 PM — Oct 31 12:50 PM, Bruck an der Mur, Weather by CustomWeather, © 2014

Note: Actual official high and low records may vary slightly from our data, if they occured in-between our weather recording intervals... More about our weather records

Advertising

Bruck an der Mur weather history for previous 24 hours

 ConditionsComfort  
Time TempWeatherWind HumidityBarometerVisibility
12:50 PM
Oct 31
55 °FScattered clouds.2 mph59%30.30 "Hg31 mi
11:50 AM52 °FPassing clouds.1 mph67%30.33 "Hg31 mi
10:50 AM46 °FPartly sunny.No wind76%30.33 "Hg31 mi
9:50 AM43 °FPartly sunny.No wind81%30.36 "Hg31 mi
8:50 AM37 °FPartly sunny.No wind93%30.36 "Hg31 mi
7:50 AM32 °FFog.No wind100%30.36 "Hg5 mi
6:50 AM30 °FScattered clouds.1 mph100%30.33 "Hg6 mi
5:50 AM30 °FPassing clouds.1 mph100%30.33 "Hg6 mi
4:50 AM32 °FPassing clouds.1 mph100%30.33 "Hg6 mi
3:50 AM32 °FPassing clouds.5 mph100%30.33 "Hg6 mi
12:50 AM30 °FPassing clouds.2 mph100%30.33 "Hg6 mi
9:50 PM
Oct 30
36 °FPassing clouds.2 mph93%30.33 "Hg6 mi
8:50 PM37 °FPassing clouds.2 mph87%30.30 "Hg9 mi
7:50 PM39 °FPassing clouds.2 mph87%30.30 "Hg9 mi
6:50 PM41 °FPassing clouds.5 mph81%30.27 "Hg12 mi
6:20 PM43 °FPassing clouds.3 mph81%30.27 "Hg16 mi
5:50 PM45 °FPassing clouds.6 mph76%30.27 "Hg19 mi
5:20 PM48 °FPassing clouds.3 mph66%30.27 "Hg19 mi
4:50 PM50 °FPassing clouds.2 mph62%30.24 "Hg25 mi
4:20 PM54 °FPassing clouds.2 mph63%30.24 "Hg25 mi
3:50 PM55 °FPassing clouds.3 mph59%30.24 "Hg25 mi
3:20 PM57 °FPassing clouds.2 mph48%30.21 "Hg19 mi
2:50 PM57 °FPassing clouds.1 mph44%30.21 "Hg25 mi
2:20 PM55 °FPassing clouds.1 mph51%30.21 "Hg25 mi
Weather by CustomWeather, © 2014

See weather overviewHow to use our weather pages